Location: Beccas
(43.4309°N, 0.1528°E)
Time: 11:24:07
(UTC+00:00)

Okean-O - Pass Details

Date: 15 October 2021
Orbit: 639 x 640 km, 98.2° (Epoch: 02 December)

Event Time Altitude Azimuth Distance (km) Brightness Sun altitude
Exits shadow 19:21:27 35° 180° (S) 1,039 3.5 -23.5°
Maximum altitude 19:23:16 74° 258° (WSW) 671 2.7 -23.8°
Drops below altitude 10° 19:27:43 10° 343° (NNW) 2,042 5.5 -24.6°
Sets 19:29:57 0° 345° (NNW) 2,956 6.4 -25.0°
